Wind_Speed
10 11 11 4 3 2 2 4 1 2 2 3 11 6 4 3 4 1 3 22 25 28 29 31 31 31 29 26 24 23 23 27 26 22 18 15 15 17 18 18 18 17 16 15 14 14 13 14 13
10 9 6 1 3 5 3 2 3 5 14 14 3 5 5 3 4 5 7 25 29 28 29 31 32 31 29 26 23 22 24 28 25 22 19 17 17 19 19 19 18 17 16 15 14 13 13 13 13
10 6 3 1 2 7 2 5 5 11 10 8 6 2 2 2 3 4 16 20 29 28 29 31 32 31 30 27 25 24 25 27 26 23 20 19 20 21 20 20 19 17 16 15 14 13 12 11 10
5 1 3 5 11 4 2 5 9 12 7 11 10 6 3 3 3 6 21 16 25 28 29 30 31 31 30 28 26 25 26 27 27 24 22 21 21 21 21 20 19 18 16 14 13 12 10 9 7
7 2 6 6 12 5 4 1 7 8 6 11 13 10 5 2 0 8 21 15 24 30 30 31 31 30 29 28 26 25 26 27 27 25 24 24 23 22 21 20 19 18 16 14 12 11 9 8 6
5 3 7 14 16 6 2 2 7 7 8 12 13 11 3 4 0 5 14 13 25 30 30 30 31 30 29 27 25 24 25 27 27 26 25 25 24 24 22 20 19 17 15 14 12 10 8 6 4
7 5 15 14 13 12 5 3 2 4 9 8 15 9 5 13 11 7 10 10 22 29 30 31 31 30 29 27 25 23 25 26 27 27 27 26 25 24 23 20 18 17 15 13 11 9 7 5 3
5 3 11 9 11 19 3 3 6 8 11 10 6 3 5 21 15 10 12 15 21 25 28 30 32 32 31 29 26 23 24 26 27 28 28 27 26 25 23 21 19 16 14 12 10 8 6 4 2
7 5 11 14 11 8 3 3 9 8 15 12 9 14 17 21 9 16 16 19 23 26 27 30 32 34 34 32 28 25 24 26 27 28 28 28 28 26 24 22 19 17 14 12 11 8 7 5 4
7 6 9 4 5 6 6 7 14 11 17 19 22 17 14 17 10 17 22 23 26 26 28 31 32 34 35 34 32 29 29 30 31 31 31 31 30 28 26 22 19 17 15 13 10 8 6 5 5
5 8 4 3 6 8 5 7 11 15 18 19 21 21 19 17 15 16 23 26 25 28 30 32 33 34 35 36 35 34 34 34 34 34 33 32 31 30 27 24 22 20 18 15 12 9 6 6 6
4 5 10 10 16 19 17 19 22 25 27 21 24 26 26 25 20 18 22 28 28 28 29 31 33 35 36 37 37 36 37 37 36 36 35 34 32 30 27 25 23 20 18 15 11 8 6 4 4
5 3 6 11 13 15 18 19 21 26 21 24 25 26 26 26 24 23 24 26 27 28 29 32 33 35 36 38 39 39 39 38 37 36 37 36 35 32 29 27 24 21 18 15 11 8 6 5 5
6 3 4 4 8 9 10 16 10 7 11 19 18 21 23 24 25 25 24 30 29 27 28 31 32 34 33 37 40 41 40 39 38 37 37 36 34 32 30 27 25 23 20 15 12 10 9 8 7
0 3 4 7 6 6 7 15 9 15 13 17 19 19 21 24 24 22 24 29 29 28 29 29 29 33 34 36 37 40 41 41 39 39 38 37 35 33 31 29 26 22 19 15 14 12 10 9 8
1 1 3 2 5 5 5 20 8 7 12 16 18 18 20 16 14 18 28 32 33 33 30 27 29 29 33 34 37 41 42 42 42 42 40 37 35 35 33 31 27 24 22 17 18 15 14 12 10
2 3 1 5 5 6 6 13 7 20 23 16 18 20 22 23 23 19 18 31 35 34 29 28 30 31 30 31 35 41 42 43 39 35 40 36 38 38 35 33 30 26 23 21 21 18 17 15 12
2 2 3 7 3 8 17 19 18 20 20 18 16 18 21 23 24 24 24 22 32 34 33 33 31 30 30 31 36 40 42 42 42 34 32 42 47 42 37 34 31 28 27 24 25 20 21 17 13
3 4 7 11 12 6 13 16 16 21 20 17 17 16 20 22 23 23 25 28 30 35 39 38 36 34 35 36 38 39 39 41 40 46 42 42 40 41 35 34 32 33 30 26 25 20 22 18 12
6 7 9 9 10 5 13 19 14 15 17 21 21 21 18 20 21 22 24 29 34 36 38 44 43 42 39 39 40 40 40 39 39 36 34 36 37 38 40 37 33 35 33 31 32 27 24 22 16
8 7 9 10 9 10 14 20 12 10 13 19 23 23 20 18 19 19 19 18 24 32 36 42 44 46 45 45 43 40 37 34 33 35 33 32 32 34 31 36 38 36 35 34 32 31 31 26 22
7 7 7 7 9 12 8 17 18 15 20 18 20 21 23 21 22 22 22 20 17 19 27 38 44 48 50 49 44 42 39 36 31 31 31 30 32 31 30 32 32 31 28 30 32 27 29 26 20
7 3 7 9 13 15 16 14 14 7 14 15 15 22 24 24 23 25 26 25 23 21 20 23 34 46 49 49 45 43 39 36 31 27 25 27 30 31 28 25 26 25 29 31 27 28 26 27 24
2 4 10 6 7 12 17 16 8 12 16 15 16 21 22 17 22 27 27 28 29 28 26 24 26 31 40 45 42 41 36 33 29 25 26 27 28 28 29 30 31 29 29 30 31 30 26 19 23
1 5 8 7 7 11 7 13 14 20 15 19 21 25 16 11 14 19 23 26 31 33 34 30 29 30 32 37 38 37 35 33 31 28 27 29 31 33 33 35 35 32 30 29 30 31 38 47 34
2 3 5 12 14 19 16 10 8 15 12 18 17 7 7 9 10 13 19 24 30 36 35 35 33 34 35 37 37 35 34 34 31 29 30 30 30 32 34 36 35 34 29 28 28 27 23 25 19
4 4 1 7 14 12 8 16 18 7 13 19 18 18 17 13 14 14 15 23 25 23 31 34 37 37 40 40 39 37 34 31 27 25 24 24 24 25 28 32 32 32 27 25 20 21 20 20 28
2 5 3 2 5 9 9 17 11 7 11 13 18 20 18 21 18 18 19 19 25 25 18 26 35 41 43 42 38 33 28 24 21 19 19 19 20 22 24 25 26 25 25 27 28 28 25 26 26
3 4 2 1 3 5 8 7 3 9 12 14 12 16 17 17 19 21 21 19 16 22 18 15 24 32 38 37 31 28 24 21 18 16 16 18 19 19 19 18 17 17 16 16 16 15 15 15 15
5 8 9 5 5 5 3 15 12 13 5 9 12 11 13 17 17 18 19 20 19 15 16 7 11 20 34 35 33 28 24 23 20 17 15 16 17 17 17 18 17 16 14 13 11 10 8 7 6
Wind_Direction
300 322 331 318 235 260 229 211 269 338 275 291 305 233 264 266 215 253 267 177 178 179 175 178 176 178 177 178 177 177 175 171 170 169 170 169 158 152 149 147 147 145 143 142 136 131 127 125 122
294 316 330 356 245 227 219 212 121 357 320 314 289 216 237 243 256 277 153 171 171 179 175 178 177 178 178 178 178 176 175 174 174 175 177 171 163 157 153 149 150 148 145 143 139 134 131 129 127
295 311 310 278 222 232 225 149 19 334 327 342 345 288 266 287 297 208 157 161 169 181 177 179 178 179 180 180 180 181 180 180 181 183 181 174 166 161 156 154 154 152 151 148 143 137 133 133 131
265 273 83 237 240 248 245 110 350 347 359 15 342 282 281 291 270 203 161 163 175 180 182 182 183 182 183 184 185 188 187 187 189 187 183 175 170 164 160 159 158 158 156 152 146 139 135 134 131
231 182 230 225 238 252 264 2 338 340 345 357 5 347 299 333 164 170 174 170 179 178 183 185 185 187 188 189 191 194 192 190 191 189 183 177 173 168 166 164 164 162 160 154 151 143 144 142 139
177 184 225 233 233 243 236 325 321 311 324 339 360 338 316 353 115 159 176 180 180 181 184 187 188 190 193 194 197 198 196 193 191 189 185 179 176 172 171 171 170 168 163 160 153 148 147 140 129
211 208 235 241 249 260 253 315 327 316 321 330 339 327 352 15 322 196 183 185 182 184 187 189 189 193 197 199 201 202 201 198 194 191 187 183 181 178 177 178 177 172 169 164 156 156 155 147 134
178 216 228 233 233 256 257 283 279 304 300 309 311 331 331 334 317 244 200 185 186 190 196 195 193 194 197 202 204 207 206 202 199 193 189 187 185 184 184 183 181 179 175 170 167 171 168 166 175
162 219 236 229 224 229 209 351 286 295 286 287 284 291 311 331 301 223 209 191 191 196 200 203 200 199 198 201 204 208 209 205 201 198 195 191 191 188 189 189 186 183 182 182 181 184 184 190 204
198 218 233 238 247 256 276 282 288 288 281 282 286 279 304 329 316 228 214 200 197 201 203 206 206 204 203 203 203 206 206 203 202 201 200 198 195 193 194 193 192 190 191 194 195 197 204 217 233
174 231 207 231 243 265 273 264 262 274 272 276 275 290 296 294 299 257 229 219 212 207 207 209 211 210 207 205 206 204 206 205 202 202 204 202 200 200 197 195 197 197 199 201 204 208 225 248 254
206 207 223 260 251 260 265 271 264 261 267 269 275 283 288 285 286 275 243 232 222 222 219 215 216 216 213 210 209 209 210 208 206 203 204 207 205 206 203 201 204 206 208 210 212 222 241 230 204
209 241 244 258 270 263 264 252 255 268 270 269 269 273 273 274 272 269 268 243 235 229 229 226 222 220 218 215 214 213 213 213 212 209 208 209 209 209 208 207 207 213 216 220 224 229 236 233 229
172 217 275 269 265 251 254 258 248 267 284 276 267 267 268 263 262 268 258 249 237 235 233 230 229 232 226 221 220 220 218 216 215 215 216 216 215 214 217 214 215 216 221 227 233 236 237 245 260
119 308 300 232 258 262 261 261 233 262 283 272 273 272 278 266 267 265 247 241 238 233 223 226 229 233 232 229 227 226 223 221 220 219 221 220 219 221 223 222 225 223 234 231 244 250 244 251 262
151 130 290 359 316 274 209 274 259 287 331 306 295 288 284 282 278 269 245 237 240 234 229 228 228 228 232 228 228 228 226 225 225 224 226 227 226 226 227 229 228 233 231 232 241 243 251 252 266
34 251 270 306 238 280 240 292 306 303 303 291 291 286 286 286 279 273 278 241 239 233 225 229 228 227 226 228 228 230 230 229 230 234 238 237 239 232 228 232 232 232 235 239 244 247 250 258 266
180 266 233 275 264 282 287 284 286 289 283 280 275 282 285 287 284 282 274 258 246 235 231 230 224 220 220 223 226 230 232 232 225 222 224 212 241 237 231 232 237 236 234 236 242 248 257 259 267
253 252 271 275 277 267 272 281 283 284 290 281 270 263 272 277 287 287 275 264 249 244 239 233 231 228 226 224 226 231 235 237 232 233 232 230 227 238 240 240 239 243 239 234 239 241 256 250 258
232 272 276 273 270 227 288 286 287 264 267 271 273 274 266 273 280 284 284 270 251 241 241 236 235 235 232 231 234 234 238 240 242 238 234 235 226 222 231 240 248 248 242 241 239 239 242 246 239
256 247 281 291 310 279 285 282 269 258 258 262 262 270 271 262 270 284 291 290 262 242 236 235 233 232 234 235 234 233 234 236 237 234 230 227 227 223 225 226 236 247 252 246 244 238 234 234 240
275 223 255 274 305 303 351 293 273 273 272 265 263 264 269 271 272 280 289 285 280 273 254 238 233 233 234 235 235 234 236 231 233 234 229 225 222 225 229 233 237 248 250 249 242 241 240 227 233
292 254 269 280 287 294 280 271 292 276 268 266 270 266 267 270 272 277 277 277 274 271 269 252 237 233 234 234 233 231 231 234 233 229 226 222 226 228 231 232 239 244 245 246 245 237 232 227 226
314 285 285 278 283 262 274 258 294 295 290 293 274 268 264 259 272 276 279 276 271 270 265 257 244 233 232 234 231 230 233 232 227 223 215 217 222 228 235 238 247 251 251 247 244 243 243 238 265
139 321 298 274 249 275 331 303 277 303 309 305 303 283 282 304 300 294 293 291 280 277 270 258 246 235 226 226 226 227 229 231 233 231 230 227 227 230 234 240 245 251 252 251 252 250 249 251 257
280 256 269 288 292 296 308 266 277 336 2 347 331 302 14 5 354 346 333 310 289 273 263 255 247 235 228 224 223 221 223 223 223 224 226 229 230 233 235 238 244 249 249 252 255 250 251 231 218
143 229 48 284 275 279 249 271 282 50 19 4 7 7 347 338 336 336 353 360 346 299 262 243 240 237 230 227 221 217 213 213 210 209 212 221 229 231 231 234 239 243 240 243 241 233 232 239 230
253 137 221 205 274 275 280 286 260 327 341 345 350 347 346 352 337 323 322 334 360 346 304 248 229 231 230 222 215 208 200 196 197 205 216 224 228 227 225 226 231 236 237 234 234 234 230 226 228
190 198 177 280 255 276 296 278 211 277 313 313 334 323 333 333 338 344 337 329 334 359 337 288 247 229 222 210 199 193 192 197 200 198 200 205 207 209 212 213 212 213 212 212 211 210 212 217 227
243 246 217 230 204 228 287 277 277 279 246 316 308 301 326 321 327 335 344 349 350 348 357 310 242 210 201 192 189 189 191 186 182 177 188 195 199 203 209 208 205 203 201 199 196 199 202 215 240
Height
1512 1512 1511 1512 1515 1514 1513 1505 1503 1501 1500 1498 1496 1495 1492 1491 1488 1491 1486 1488 1491 1495 1500 1506 1509 1513 1517 1521 1525 1528 1530 1531 1534 1537 1539 1541 1543 1544 1545 1547 1548 1549 1551 1552 1553 1553 1553 1554 1555
1511 1511 1512 1511 1513 1516 1509 1502 1502 1501 1500 1496 1493 1493 1493 1488 1488 1486 1484 1487 1490 1496 1500 1505 1509 1512 1516 1520 1524 1527 1529 1533 1535 1537 1539 1541 1543 1544 1545 1547 1549 1550 1551 1552 1553 1554 1555 1555 1556
1510 1510 1512 1510 1514 1511 1507 1501 1502 1500 1497 1496 1493 1492 1491 1489 1488 1486 1484 1488 1490 1495 1500 1505 1509 1512 1515 1519 1522 1525 1529 1531 1534 1537 1539 1540 1542 1544 1546 1548 1549 1551 1552 1553 1554 1555 1556 1557 1557
1510 1510 1513 1511 1509 1506 1505 1503 1503 1498 1496 1496 1496 1492 1491 1489 1488 1487 1487 1489 1491 1494 1499 1504 1509 1512 1515 1517 1521 1524 1527 1530 1533 1535 1538 1540 1542 1544 1546 1547 1549 1551 1553 1554 1555 1556 1557 1558 1559
1508 1508 1508 1510 1509 1505 1505 1505 1504 1500 1499 1497 1495 1495 1492 1490 1489 1487 1488 1489 1492 1494 1499 1504 1508 1514 1517 1519 1521 1523 1526 1529 1531 1535 1536 1538 1541 1544 1546 1548 1550 1551 1553 1554 1555 1556 1557 1558 1559
1506 1508 1509 1506 1505 1503 1504 1505 1504 1502 1499 1498 1497 1496 1494 1492 1491 1491 1491 1491 1493 1496 1499 1502 1508 1512 1518 1520 1523 1525 1526 1529 1531 1534 1536 1539 1541 1543 1545 1548 1550 1552 1553 1554 1556 1557 1558 1558 1559
1503 1504 1502 1502 1505 1502 1503 1504 1503 1502 1500 1498 1498 1494 1495 1494 1494 1492 1492 1492 1494 1497 1500 1502 1505 1510 1515 1520 1522 1524 1527 1529 1531 1533 1536 1538 1541 1543 1545 1548 1550 1552 1554 1555 1556 1557 1558 1559 1559
1502 1503 1503 1501 1503 1500 1503 1506 1503 1504 1500 1500 1498 1493 1494 1495 1493 1494 1493 1492 1495 1497 1500 1501 1504 1507 1511 1517 1520 1523 1525 1529 1531 1533 1536 1538 1540 1543 1545 1547 1549 1552 1554 1555 1556 1557 1558 1559 1559
1499 1502 1499 1499 1501 1501 1502 1505 1501 1503 1501 1500 1498 1495 1496 1492 1491 1492 1493 1492 1494 1496 1497 1501 1502 1505 1508 1512 1516 1521 1524 1527 1530 1534 1535 1537 1540 1542 1545 1547 1549 1550 1552 1554 1555 1557 1558 1558 1558
1498 1499 1500 1500 1497 1500 1503 1505 1502 1500 1499 1497 1497 1494 1494 1492 1489 1491 1490 1490 1490 1491 1493 1496 1499 1502 1506 1509 1513 1517 1520 1522 1525 1530 1534 1536 1538 1540 1543 1546 1548 1550 1552 1553 1555 1556 1557 1557 1557
1497 1495 1499 1498 1495 1498 1500 1500 1498 1495 1493 1496 1494 1490 1490 1491 1489 1487 1487 1487 1487 1489 1491 1492 1496 1499 1501 1505 1509 1511 1517 1519 1522 1525 1532 1534 1537 1539 1541 1544 1546 1548 1549 1551 1553 1554 1555 1555 1555
1497 1496 1495 1495 1495 1496 1497 1497 1491 1490 1488 1494 1491 1488 1485 1485 1484 1483 1483 1484 1484 1486 1488 1490 1493 1496 1499 1502 1505 1509 1512 1516 1519 1522 1527 1532 1533 1538 1540 1542 1544 1546 1549 1550 1551 1552 1553 1552 1553
1494 1492 1492 1492 1493 1492 1492 1491 1488 1481 1486 1485 1485 1483 1482 1480 1479 1479 1479 1481 1483 1482 1485 1486 1489 1491 1495 1499 1503 1506 1509 1513 1518 1520 1523 1527 1530 1534 1538 1540 1542 1544 1547 1549 1550 1551 1551 1552 1552
1491 1491 1489 1489 1489 1489 1485 1482 1483 1480 1479 1477 1478 1478 1476 1475 1476 1476 1474 1474 1476 1478 1480 1483 1485 1488 1490 1495 1498 1503 1506 1509 1514 1516 1521 1525 1529 1533 1535 1537 1540 1541 1543 1547 1548 1549 1548 1550 1552
1489 1487 1487 1486 1486 1482 1480 1475 1477 1476 1474 1473 1470 1472 1471 1471 1471 1470 1469 1471 1473 1475 1475 1479 1480 1483 1485 1489 1494 1499 1503 1506 1509 1512 1517 1519 1525 1530 1534 1535 1537 1538 1542 1542 1545 1547 1546 1548 1548
1487 1489 1487 1483 1483 1480 1481 1469 1471 1472 1473 1471 1467 1467 1467 1466 1466 1467 1466 1466 1469 1471 1471 1473 1477 1477 1479 1483 1488 1493 1496 1499 1503 1507 1511 1516 1521 1526 1530 1532 1534 1536 1538 1537 1543 1543 1544 1544 1544
1490 1487 1491 1487 1482 1481 1479 1470 1469 1468 1468 1466 1464 1462 1462 1461 1462 1463 1464 1463 1464 1467 1468 1470 1471 1472 1476 1478 1482 1488 1490 1493 1498 1503 1505 1510 1516 1522 1523 1528 1529 1532 1534 1535 1537 1538 1540 1540 1539
1488 1490 1490 1489 1479 1479 1475 1469 1466 1464 1463 1461 1461 1460 1459 1457 1457 1457 1459 1459 1461 1463 1464 1466 1466 1468 1471 1473 1477 1481 1483 1488 1491 1494 1497 1501 1509 1519 1518 1520 1525 1528 1527 1530 1531 1533 1537 1536 1536
1486 1488 1488 1481 1477 1481 1473 1467 1464 1461 1459 1457 1456 1456 1454 1452 1451 1451 1452 1452 1454 1457 1458 1459 1460 1464 1465 1466 1469 1474 1474 1479 1483 1487 1494 1500 1505 1512 1516 1517 1518 1522 1521 1523 1526 1526 1531 1532 1531
1485 1486 1482 1478 1474 1477 1466 1461 1460 1459 1454 1451 1450 1448 1448 1447 1446 1446 1445 1444 1446 1449 1451 1452 1453 1457 1458 1460 1464 1466 1470 1473 1477 1482 1485 1492 1496 1502 1507 1509 1510 1513 1517 1516 1518 1519 1525 1526 1527
1477 1480 1476 1476 1471 1466 1461 1451 1449 1448 1447 1446 1444 1443 1442 1443 1442 1441 1439 1437 1437 1438 1441 1443 1446 1449 1452 1454 1457 1461 1466 1468 1471 1473 1479 1483 1487 1493 1496 1500 1501 1505 1509 1510 1513 1513 1518 1519 1523
1477 1471 1472 1473 1472 1470 1465 1447 1439 1442 1438 1437 1438 1439 1439 1438 1436 1435 1434 1432 1432 1430 1432 1435 1437 1441 1445 1446 1449 1452 1457 1459 1462 1468 1472 1476 1480 1485 1489 1494 1496 1500 1501 1502 1506 1506 1514 1514 1518
1470 1470 1470 1469 1467 1465 1461 1453 1437 1435 1435 1436 1435 1434 1432 1431 1430 1428 1427 1425 1424 1424 1424 1425 1427 1431 1434 1437 1440 1446 1449 1453 1456 1463 1468 1470 1474 1478 1482 1485 1490 1492 1495 1497 1498 1501 1506 1509 1510
1469 1469 1467 1470 1465 1463 1450 1448 1437 1432 1429 1427 1427 1426 1424 1423 1423 1421 1420 1418 1417 1417 1418 1417 1419 1421 1424 1428 1434 1438 1441 1446 1451 1455 1461 1465 1469 1471 1475 1479 1481 1485 1488 1489 1491 1495 1500 1504 1508
1469 1470 1468 1463 1457 1453 1450 1451 1435 1432 1433 1430 1426 1424 1423 1421 1420 1417 1415 1411 1410 1409 1410 1410 1412 1414 1417 1422 1425 1430 1435 1440 1443 1449 1454 1459 1463 1465 1471 1472 1474 1476 1480 1482 1484 1488 1490 1497 1497
1469 1472 1477 1475 1463 1453 1457 1451 1432 1433 1439 1435 1429 1428 1424 1422 1420 1417 1412 1408 1404 1401 1401 1403 1405 1407 1410 1414 1419 1424 1429 1433 1437 1443 1448 1452 1455 1459 1463 1465 1467 1471 1474 1474 1476 1479 1482 1486 1491
1474 1473 1477 1476 1469 1467 1449 1438 1431 1436 1435 1434 1432 1431 1429 1423 1420 1417 1413 1407 1400 1395 1392 1394 1397 1400 1403 1408 1412 1417 1422 1427 1432 1437 1442 1446 1449 1453 1456 1459 1460 1463 1466 1468 1470 1474 1478 1480 1485
1469 1473 1479 1486 1481 1462 1441 1437 1434 1433 1432 1433 1433 1432 1430 1425 1420 1416 1412 1407 1400 1394 1388 1385 1387 1392 1396 1401 1407 1413 1419 1425 1428 1432 1436 1440 1444 1447 1450 1453 1455 1457 1460 1463 1466 1470 1474 1479 1483
1472 1473 1478 1482 1486 1470 1455 1432 1434 1432 1431 1430 1428 1433 1429 1426 1423 1416 1410 1405 1399 1393 1387 1382 1382 1384 1390 1397 1404 1410 1416 1420 1424 1427 1431 1435 1439 1443 1446 1448 1451 1454 1457 1460 1463 1466 1469 1472 1475
1466 1467 1469 1473 1474 1477 1475 1439 1429 1427 1432 1432 1431 1429 1426 1425 1421 1416 1409 1403 1398 1395 1392 1384 1382 1384 1388 1394 1400 1406 1412 1416 1421 1424 1428 1432 1435 1439 1442 1445 1448 1451 1454 1457 1459 1462 1464 1467 1468